Weather History for Klawock, AK

Change the Weather History Date:

Tuesday, March 5, 2013

  Actual Average Record
Temperature  
Mean Temperature 38 °F -  
Max Temperature 48 °F 38 °F 48 °F (2006)
Min Temperature 26 °F 27 °F 19 °F (2014)
Degree Days  
Heating Degree Days 27    
Moisture  
Dew Point 22 °F    
Average Humidity 57    
Maximum Humidity 84    
Minimum Humidity 32    
Precipitation  
Precipitation 0.00 in - - ()
Sea Level Pressure  
Sea Level Pressure 30.01 in    
Wind  
Wind Speed 7 mph (NNE)    
Max Wind Speed 13 mph    
Max Gust Speed -    
Visibility 10 miles    
Events      
Averages and records for this station are not official NWS values.
T = Trace of Precipitation, MM = Missing Value Source: NWS Daily Summary

Daily Weather History Graph

Daily Weather History Graph

Search for Another Location

Airport:

Trip Planner

Search our weather history database for the weather conditions in past years. The results will help you decide how hot, cold, wet, or windy it might be!

Date:

Astronomy

Mar. 05, 2013 Rise Set
Actual Time 6:31 AM AKST 5:36 PM AKST
Civil Twilight 5:55 AM AKST 6:13 PM AKST
Nautical Twilight 5:12 AM AKST 6:55 PM AKST
Astronomical Twilight 4:29 AM AKST 7:39 PM AKST
Moon 2:39 AM AKST (3/5) 10:34 AM AKST (3/5)
Length of Visible Light 12h 17m
Length of Day
11h 04m
Last Quarter, 39% of the Moon is Illuminated
Mar 5
Last Quarter
Mar 11
New
Mar 19
First Quarter
Mar 27
Full
Apr 2
Last Quarter

Hourly Weather History & Observations

Time (AKST) Temp. Windchill Dew Point Humidity Pressure Visibility Wind Dir Wind Speed Gust Speed Precip Events Conditions
12:53 AM 33.1 °F 26.1 °F 23.0 °F 66% 30.17 in 10.0 mi NNE 8.1 mph - N/A   Clear
1:53 AM 33.1 °F 26.9 °F 21.9 °F 64% 30.16 in 10.0 mi NE 6.9 mph - N/A   Clear
4:53 AM 33.1 °F 23.9 °F 23.0 °F 66% 30.12 in 10.0 mi NNE 12.7 mph - N/A   Clear
5:53 AM 32.0 °F 22.5 °F 21.9 °F 66% 30.10 in 10.0 mi NNE 12.7 mph - N/A   Clear
6:53 AM 33.1 °F 30.0 °F 21.0 °F 61% 30.09 in 10.0 mi Variable 3.5 mph - N/A   Clear
7:53 AM 33.1 °F - 21.9 °F 64% 30.08 in 10.0 mi Calm Calm - N/A   Clear
10:53 AM 43.0 °F 41.3 °F 21.9 °F 43% 30.04 in 10.0 mi Variable 3.5 mph - N/A   Clear
11:53 AM 45.0 °F 39.7 °F 19.9 °F 37% 30.02 in 10.0 mi NNE 10.4 mph - N/A   Clear
12:53 PM 46.9 °F - 18.0 °F 32% 30.00 in 10.0 mi NNE 10.4 mph - N/A   Clear
1:53 PM 48.0 °F - 19.9 °F 33% 29.98 in 10.0 mi Variable 6.9 mph - N/A   Clear
2:53 PM 46.9 °F - 21.0 °F 36% 29.96 in 10.0 mi NNE 8.1 mph - N/A   Clear
3:53 PM 45.0 °F 40.1 °F 21.9 °F 40% 29.94 in 10.0 mi North 9.2 mph - N/A   Clear
4:53 PM 42.1 °F 37.7 °F 21.9 °F 45% 29.93 in 10.0 mi NNE 6.9 mph - N/A   Clear
5:53 PM 37.0 °F 32.4 °F 23.0 °F 57% 29.92 in 10.0 mi ENE 5.8 mph - N/A   Clear
6:53 PM 35.1 °F 32.2 °F 23.0 °F 61% 29.92 in 10.0 mi East 3.5 mph - N/A   Clear
8:53 PM 28.9 °F - 21.9 °F 75% 29.93 in 10.0 mi Calm Calm - N/A   Clear
9:53 PM 28.0 °F - 21.9 °F 78% 29.94 in 10.0 mi Calm Calm - N/A   Clear
10:53 PM 28.0 °F - 23.0 °F 81% 29.94 in 10.0 mi Calm Calm - N/A   Clear
11:53 PM 26.1 °F - 21.9 °F 84% 29.93 in 10.0 mi Calm Calm - N/A   Clear